Location: Brachstadt
(48.6975°N, 10.6755°E)
Time: 05:54:46
(UTC+00:00)

OBJECT-B - Pass Details

Date: 18 September 2020
Orbit: 421 x 433 km, 97.0° (Epoch: 09 October)

Event Time Altitude Azimuth Distance (km) Brightness Sun altitude
Exits shadow 20:34:37 11° 274° (W) 1,432 4.0 -29.5°
Drops below altitude 10° 20:35:34 10° 291° (WNW) 1,517 4.4 -29.7°
Sets 20:38:48 0° 327° (NNW) 2,393 5.7 -30.0°
